Location: Newark
(35.5300°N, 14.3000°E)
Time: 20:33:42
(UTC+00:00)

Explorer 11/Cluster Stage 4 - Pass Details

Date: 14 November 2019
Orbit: 467 x 1259 km, 28.8° (Epoch: 15 December)

Event Time Altitude Azimuth Distance (km) Brightness Sun altitude
Exits shadow 02:34:59 16° 168° (SSE) 2,559 9.2 -37.0°
Drops below altitude 10° 02:36:50 10° 156° (SSE) 2,954 9.7 -36.7°
Sets 02:39:58 0° 143° (SE) 3,790 10.5 -36.0°
